COMSATBW-1

Last updated on Mon Oct 14 2024 00:02:38 GMT+0000 (Coordinated Universal Time)

1 35943U 09054B 24287.53660642 .00000023 00000+0 00000+0 0 9990 2 35943 0.0537 74.7222 0003749 146.2573 57.8063 1.00271417 55165
UTC large
Height (km)
Speed (km/s)
/
Latitude / Longitude
Inclination (degrees)
Orbital Period (minutes)
Azimuth
Elevation
Range (km)
Doppler Factor

Next 0 passes for location: London (51.5072 / 0.1276)

Sorry there are no passes over London.